• In Romania
  • List of Countries
  • For 7 days
  • Water Temperature
  • Satellite Maps
  • Weather Map
  • Weather Widgets
  • user-avatar
    Login

    Hourly Weather Nakhchivan

    Today, 22 February, Wednesday

    Time Temperature Precipitation Wind Pressure Humidity
    00:00 -6°C° 0 mm 1 mps 684 mmHg 67%
    01:00 -6°C° 0 mm 1 mps 684 mmHg 68%
    02:00 -6°C° 0 mm 1 mps 684 mmHg 69%
    03:00 -8°C° 0 mm 2 mps 684 mmHg 70%
    04:00 -9°C° 0 mm 2 mps 684 mmHg 71%
    05:00 -8°C° 0 mm 1 mps 684 mmHg 72%
    06:00 -8°C° 0 mm 1 mps 684 mmHg 74%
    07:00 -4°C° 0 mm 1 mps 685 mmHg 74%
    08:00 -2°C° 0 mm 1 mps 685 mmHg 75%
    09:00 +2°C° 0 mm 1 mps 686 mmHg 76%
    10:00 +3°C° 0 mm 1 mps 686 mmHg 80%
    11:00 +3°C° 0 mm 1 mps 686 mmHg 84%
    12:00 +4°C° 0 mm 1 mps 686 mmHg 88%
    13:00 +4°C° 0 mm 1 mps 685 mmHg 89%
    14:00 +4°C° 0 mm 1 mps 685 mmHg 91%
    15:00 +4°C° 0 mm 1 mps 685 mmHg 92%
    16:00 +1°C° 0 mm 1 mps 685 mmHg 91%
    17:00 -2°C° 0 mm 1 mps 684 mmHg 89%
    18:00 -6°C° 0 mm 1 mps 684 mmHg 88%
    19:00 -4°C° 0 mm 1 mps 684 mmHg 85%
    20:00 -6°C° 0 mm 2 mps 685 mmHg 81%
    21:00 -6°C° 0 mm 2 mps 685 mmHg 78%
    22:00 -6°C° 0 mm 2 mps 685 mmHg 77%
    23:00 -6°C° 0 mm 2 mps 685 mmHg 77%

    Tomorrow, 23 February, Thursday

    Time Temperature Precipitation Wind Pressure Humidity
    00:00 -6°C° 0 mm 2 mps 685 mmHg 77%
    01:00 -6°C° 0 mm 2 mps 685 mmHg 78%
    02:00 -6°C° 0 mm 2 mps 685 mmHg 78%
    03:00 -6°C° 0 mm 2 mps 685 mmHg 79%
    04:00 -6°C° 0 mm 2 mps 685 mmHg 80%
    05:00 -4°C° 0 mm 1 mps 685 mmHg 81%
    06:00 -3°C° 0 mm 1 mps 686 mmHg 81%
    07:00 -2°C° 0.1 mm 1 mps 686 mmHg 82%
    08:00 0°C° 0.1 mm 1 mps 687 mmHg 82%
    09:00 +2°C° 0.1 mm 1 mps 687 mmHg 82%
    10:00 +2°C° 0 mm 1 mps 687 mmHg 85%
    11:00 +3°C° 0 mm 1 mps 687 mmHg 88%
    12:00 +4°C° 0 mm 1 mps 687 mmHg 91%
    13:00 +4°C° 0 mm 1 mps 687 mmHg 91%
    14:00 +4°C° 0 mm 1 mps 687 mmHg 91%
    15:00 +4°C° 0 mm 1 mps 687 mmHg 91%
    16:00 +1°C° 0 mm 1 mps 687 mmHg 92%
    17:00 -1°C° 0 mm 1 mps 687 mmHg 93%
    18:00 -3°C° 0 mm 1 mps 687 mmHg 94%
    19:00 -4°C° 0 mm 1 mps 687 mmHg 93%
    20:00 -4°C° 0 mm 1 mps 687 mmHg 91%
    21:00 -6°C° 0 mm 1 mps 688 mmHg 90%
    22:00 -4°C° 0 mm 1 mps 688 mmHg 89%
    23:00 -4°C° 0 mm 1 mps 688 mmHg 87%

    Day after tomorrow, 24 February, Friday

    Time Temperature Precipitation Wind Pressure Humidity
    00:00 -4°C° 0 mm 1 mps 688 mmHg 86%
    01:00 -6°C° 0 mm 1 mps 688 mmHg 85%
    02:00 -6°C° 0 mm 1 mps 688 mmHg 85%
    03:00 -6°C° 0 mm 1 mps 688 mmHg 84%
    04:00 -6°C° 0 mm 1 mps 688 mmHg 84%
    05:00 -6°C° 0 mm 1 mps 688 mmHg 84%
    06:00 -6°C° 0 mm 1 mps 688 mmHg 84%
    07:00 -3°C° 0 mm 1 mps 689 mmHg 82%
    08:00 0°C° 0 mm 1 mps 690 mmHg 79%
    09:00 +2°C° 0 mm 1 mps 691 mmHg 77%
    10:00 +3°C° 0 mm 1 mps 691 mmHg 80%
    11:00 +4°C° 0 mm 1 mps 691 mmHg 83%
    12:00 +5°C° 0 mm 1 mps 690 mmHg 86%
    13:00 +5°C° 0 mm 1 mps 690 mmHg 87%
    14:00 +5°C° 0 mm 1 mps 690 mmHg 88%
    15:00 +6°C° 0 mm 1 mps 690 mmHg 89%
    16:00 +3°C° 0 mm 1 mps 689 mmHg 89%
    17:00 0°C° 0 mm 1 mps 689 mmHg 90%
    18:00 -2°C° 0 mm 1 mps 688 mmHg 91%
    19:00 -2°C° 0 mm 1 mps 689 mmHg 88%
    20:00 -2°C° 0 mm 1 mps 689 mmHg 85%
    21:00 -2°C° 0 mm 1 mps 690 mmHg 83%
    22:00 -2°C° 0 mm 1 mps 690 mmHg 80%
    23:00 -2°C° 0 mm 1 mps 690 mmHg 78%

    25 February, Saturday

    Time Temperature Precipitation Wind Pressure Humidity
    00:00 -2°C° 0 mm 1 mps 690 mmHg 75%
    01:00 -2°C° 0 mm 1 mps 690 mmHg 74%
    02:00 -2°C° 0 mm 1 mps 690 mmHg 72%
    03:00 -2°C° 0 mm 1 mps 690 mmHg 71%
    04:00 -2°C° 0 mm 1 mps 690 mmHg 70%
    05:00 -2°C° 0 mm 1 mps 690 mmHg 70%
    06:00 -3°C° 0 mm 1 mps 690 mmHg 69%
    07:00 0°C° 0 mm 1 mps 690 mmHg 69%
    08:00 +2°C° 0 mm 1 mps 691 mmHg 69%
    09:00 +4°C° 0 mm 1 mps 691 mmHg 68%
    10:00 +5°C° 0 mm 1 mps 691 mmHg 71%
    11:00 +6°C° 0 mm 1 mps 691 mmHg 73%
    12:00 +7°C° 0 mm 1 mps 690 mmHg 76%
    13:00 +7°C° 0 mm 1 mps 690 mmHg 78%
    14:00 +7°C° 0 mm 1 mps 689 mmHg 80%
    15:00 +6°C° 0 mm 0 mps 689 mmHg 82%
    16:00 +4°C° 0 mm 1 mps 688 mmHg 81%
    17:00 +2°C° 0 mm 1 mps 688 mmHg 80%
    18:00 -1°C° 0 mm 1 mps 688 mmHg 79%
    19:00 -1°C° 0 mm 1 mps 688 mmHg 74%
    20:00 -1°C° 0 mm 1 mps 688 mmHg 70%
    21:00 -1°C° 0 mm 1 mps 689 mmHg 65%
    22:00 -1°C° 0 mm 1 mps 689 mmHg 63%
    23:00 -1°C° 0 mm 1 mps 689 mmHg 61%

    26 February, Sunday

    Time Temperature Precipitation Wind Pressure Humidity
    00:00 0°C° 0 mm 1 mps 688 mmHg 59%
    01:00 0°C° 0 mm 1 mps 688 mmHg 60%
    02:00 0°C° 0 mm 1 mps 688 mmHg 61%
    03:00 0°C° 0 mm 1 mps 688 mmHg 62%
    04:00 -1°C° 0 mm 1 mps 688 mmHg 62%
    05:00 -1°C° 0 mm 1 mps 688 mmHg 63%
    06:00 -1°C° 0 mm 1 mps 687 mmHg 64%
    07:00 +1°C° 0 mm 1 mps 688 mmHg 64%
    08:00 +2°C° 0 mm 1 mps 688 mmHg 64%
    09:00 +4°C° 0 mm 1 mps 688 mmHg 65%
    10:00 +5°C° 0 mm 1 mps 688 mmHg 67%
    11:00 +6°C° 0 mm 1 mps 687 mmHg 69%
    12:00 +7°C° 0 mm 1 mps 687 mmHg 71%
    13:00 +7°C° 0 mm 1 mps 687 mmHg 72%
    14:00 +7°C° 0 mm 1 mps 687 mmHg 74%
    15:00 +7°C° 0 mm 1 mps 686 mmHg 76%
    16:00 +5°C° 0 mm 1 mps 686 mmHg 76%
    17:00 +3°C° 0 mm 1 mps 686 mmHg 76%
    18:00 +1°C° 0 mm 1 mps 685 mmHg 76%
    19:00 +1°C° 0 mm 1 mps 686 mmHg 73%
    20:00 +1°C° 0 mm 1 mps 686 mmHg 71%
    21:00 +1°C° 0 mm 1 mps 687 mmHg 69%
    22:00 +1°C° 0 mm 1 mps 687 mmHg 67%
    23:00 +1°C° 0 mm 1 mps 687 mmHg 66%

    27 February, Monday

    Time Temperature Precipitation Wind Pressure Humidity
    00:00 0°C° 0 mm 0 mps 687 mmHg 65%
    01:00 0°C° 0 mm 0 mps 687 mmHg 65%
    02:00 0°C° 0 mm 0 mps 687 mmHg 65%
    03:00 0°C° 0 mm 0 mps 688 mmHg 65%
    04:00 0°C° 0 mm 0 mps 688 mmHg 66%
    05:00 0°C° 0 mm 0 mps 688 mmHg 66%
    06:00 0°C° 0 mm 0 mps 688 mmHg 67%
    07:00 +2°C° 0 mm 0 mps 689 mmHg 67%
    08:00 +3°C° 0 mm 0 mps 690 mmHg 66%
    09:00 +5°C° 0 mm 0 mps 690 mmHg 65%
    10:00 +6°C° 0 mm 0 mps 690 mmHg 67%
    11:00 +7°C° 0 mm 0 mps 690 mmHg 69%
    12:00 +7°C° 0 mm 0 mps 690 mmHg 71%
    13:00 +7°C° 0 mm 0 mps 689 mmHg 72%
    14:00 +7°C° 0 mm 0 mps 689 mmHg 74%
    15:00 +7°C° 0 mm 0 mps 689 mmHg 75%
    16:00 +5°C° 0 mm 0 mps 688 mmHg 76%
    17:00 +3°C° 0 mm 0 mps 688 mmHg 77%
    18:00 +1°C° 0 mm 0 mps 687 mmHg 78%
    19:00 +1°C° 0 mm 0 mps 688 mmHg 76%
    20:00 +2°C° 0 mm 1 mps 688 mmHg 75%
    21:00 +2°C° 0 mm 1 mps 688 mmHg 73%
    22:00 +2°C° 0 mm 1 mps 688 mmHg 72%
    23:00 +2°C° 0 mm 1 mps 688 mmHg 71%
    Show more